1487354400.97,55854,13.5,73246.0,-8.41,-10.05,-10.05,0,*54
1487354402.19,55855,13.5,73246.3,-8.39,-10.05,-10.05,0,*5A
1487354403.43,55856,13.5,73244.3,-8.39,-10.15,-10.15,0,*59
1487354404.67,55857,13.5,73240.3,-8.39,-10.05,-10.15,0,*59
1487354405.9,55858,13.5,73240.8,-8.39,-10.05,-10.15,0,*56
1487354407.12,55859,13.5,73240.3,-8.39,-10.05,-10.05,0,*56
1487354408.33,55860,13.5,73242.5,-8.41,-10.05,-10.15,0,*52
1487354409.56,55861,13.5,73242.3,-8.39,-10.05,-10.15,0,*5C
1487354410.77,55862,13.5,73240.0,-8.41,-10.15,-10.23,0,*54
1487354412.02,55863,13.44,73238.8,-8.39,-10.19,-10.19,0,*5F
1487354413.26,55864,13.5,73238.8,-8.39,-10.15,-10.15,0,*58
1487354414.48,55865,13.5,73236.8,-8.39,-10.05,-10.05,0,*59
1487354415.71,55866,13.5,73238.8,-8.39,-10.05,-10.05,0,*5A
1487354416.93,55867,13.44,73236.0,-8.39,-10.05,-10.05,0,*5B
1487354418.16,55868,13.5,73242.5,-8.39,-10.01,-10.05,0,*50
1487354419.39,55869,13.5,73242.5,-8.39,-10.01,-10.05,0,*51
1487354420.62,55870,13.44,73244.3,-8.39,-10.01,-10.05,0,*59
1487354421.84,55871,13.5,73250.8,-8.39,-10.01,-10.05,0,*58
1487354423.06,55872,13.5,73250.3,-8.37,-10.01,-10.01,0,*51
1487354424.27,55873,13.5,73246.5,-8.37,-10.01,-10.01,0,*50
1487354425.49,55874,13.44,73244.5,-8.39,-10.05,-10.05,0,*59
1487354426.73,55875,13.5,73246.3,-8.39,-10.01,-10.01,0,*58
1487354427.96,55876,13.5,73248.3,-8.39,-10.01,-10.15,0,*5E
1487354429.19,55877,13.5,73248.3,-8.39,-10.05,-10.05,0,*5A
1487354430.39,55878,13.5,73248.8,-8.37,-10.01,-10.09,0,*53
1487354431.59,55879,13.5,73248.8,-8.37,-10.09,-10.09,0,*5A
1487354432.83,55880,13.5,73250.5,-8.35,-10.01,-10.09,0,*56
1487354434.03,55881,13.5,73252.5,-8.37,-10.01,-10.09,0,*55
1487354435.23,55882,13.5,73252.0,-8.37,-10.09,-10.09,0,*5E
1487354436.44,55883,13.44,73254.3,-8.37,-9.97,-10.01,0,*68
1487354437.67,55884,13.5,73258.3,-8.35,-10.01,-10.09,0,*52
1487354438.88,55885,13.5,73252.8,-8.37,-10.31,-10.45,0,*5A
1487354440.09,55886,13.5,73252.0,-8.37,-10.45,-10.57,0,*59
1487354441.29,55887,13.44,73248.8,-8.37,-10.53,-10.57,0,*5F
1487354442.53,55888,13.44,73250.8,-8.37,-10.31,-10.41,0,*53
1487354443.75,55889,13.5,73250.3,-8.37,-10.27,-10.27,0,*55
1487354444.99,55890,13.44,73244.3,-8.35,-10.31,-10.31,0,*5F
1487354446.23,55891,13.44,73240.0,-8.39,-10.31,-10.35,0,*56
1487354447.44,55892,13.5,73242.5,-8.41,-10.23,-10.31,0,*5D
1487354448.66,55893,13.5,73246.0,-8.41,-10.19,-10.23,0,*56
1487354449.9,55894,13.5,73242.3,-8.39,-10.15,-10.19,0,*5B
1487354451.14,55895,13.44,73240.0,-8.39,-10.15,-10.19,0,*5A
1487354452.36,55896,13.44,73242.5,-8.39,-10.05,-10.05,0,*55
1487354453.59,55897,13.5,73246.8,-8.39,-10.05,-10.05,0,*54
1487354454.81,55898,13.5,73244.5,-8.39,-10.05,-10.05,0,*5B
1487354456.05,55899,13.5,73242.3,-8.39,-10.05,-10.15,0,*5B
1487354457.26,55900,13.44,73236.5,-8.37,-10.01,-10.01,0,*55
1487354458.47,55901,13.44,73240.3,-8.37,-10.01,-10.01,0,*54
1487354459.68,55902,13.5,73242.8,-8.37,-10.01,-10.01,0,*57
1487354460.92,55903,13.5,73240.8,-8.35,-10.01,-10.01,0,*54
1487354462.13,55904,13.44,73246.3,-8.37,-10.01,-10.01,0,*51
1487354463.34,55905,13.44,73246.5,-8.37,-10.01,-10.01,0,*50
1487354464.55,55906,13.5,73248.0,-8.37,-10.01,-10.01,0,*53
1487354465.76,55907,13.44,73244.0,-8.37,-10.09,-10.01,0,*5A
1487354466.96,55908,13.5,73246.8,-8.37,-10.09,-10.09,0,*5D
1487354468.19,55909,13.44,73246.3,-8.35,-10.09,-10.09,0,*5E
1487354469.4,55910,13.5,73242.8,-8.37,-10.01,-10.01,0,*54
1487354470.6,55911,13.44,73240.0,-8.37,-10.09,-10.09,0,*55
1487354471.82,55912,13.5,73236.5,-8.37,-10.15,-10.15,0,*56
1487354473.03,55913,13.44,73236.5,-8.37,-10.15,-10.09,0,*5A
1487354474.24,55914,13.5,73242.5,-8.37,-10.01,-10.09,0,*58
1487354475.45,55915,13.44,73240.0,-8.37,-10.01,-10.01,0,*51
1487354476.66,55916,13.5,73242.8,-8.37,-10.01,-10.01,0,*52
1487354477.9,55917,13.44,73238.8,-8.35,-10.15,-10.09,0,*5C
1487354479.11,55918,13.5,73240.0,-8.37,-10.01,-10.01,0,*5C
1487354480.32,55919,13.5,73240.8,-8.37,-10.01,-10.01,0,*5D
1487354481.54,55920,13.5,73244.0,-8.37,-10.01,-10.01,0,*57
1487354482.73,55921,13.44,73240.8,-8.37,-9.89,-9.97,0,*59
1487354483.92,55922,13.44,73238.5,-8.37,-9.97,-9.97,0,*55
1487354485.11,55923,13.44,73238.8,-8.37,-9.89,-9.97,0,*5B
1487354486.33,55924,13.44,73240.5,-8.35,-9.97,-9.97,0,*51
1487354487.52,55925,13.44,73240.0,-8.37,-9.97,-9.97,0,*52
1487354488.72,55926,13.44,73234.8,-8.37,-9.97,-9.97,0,*51
1487354489.93,55927,13.5,73236.8,-8.37,-10.01,-10.01,0,*50
1487354491.14,55928,13.44,73238.3,-8.37,-10.01,-10.01,0,*5F
1487354492.35,55929,13.44,73244.8,-8.37,-10.01,-10.01,0,*5E
1487354493.56,55930,13.5,73244.5,-8.37,-10.01,-10.01,0,*56
1487354494.79,55931,13.5,73246.3,-8.35,-9.97,-10.01,0,*62
1487354496.01,55932,13.44,73242.3,-8.35,-9.97,-9.97,0,*56
1487354497.23,55933,13.5,73240.0,-8.35,-9.97,-9.97,0,*57
1487354498.45,55934,13.44,73236.3,-8.35,-9.89,-9.97,0,*5F
1487354499.67,55935,13.44,73238.8,-8.35,-9.97,-9.89,0,*5E
1487354500.89,55936,13.5,73244.5,-8.35,-9.97,-9.97,0,*52
1487354502.1,55937,13.44,73240.8,-8.35,-9.97,-9.97,0,*53
1487354503.32,55938,13.44,73244.5,-8.35,-9.97,-9.97,0,*5C
1487354504.56,55939,13.44,73244.8,-8.35,-10.01,-10.01,0,*5D
1487354505.79,55940,13.44,73242.3,-8.35,-9.97,-10.01,0,*64
1487354507.02,55941,13.44,73246.0,-8.35,-9.97,-10.01,0,*65
1487354508.25,55942,13.44,73244.0,-8.35,-9.97,-10.01,0,*66
1487354509.49,55943,13.44,73246.3,-8.35,-10.01,-10.01,0,*50
1487354510.74,55944,13.44,73244.8,-8.35,-10.19,-10.19,0,*57
1487354511.97,55945,13.44,73244.5,-8.35,-10.09,-10.19,0,*57
1487354513.2,55946,13.44,73244.0,-8.35,-10.01,-10.09,0,*5D
1487354514.4,55947,13.44,73244.0,-8.33,-9.97,-9.97,0,*52
1487354515.59,55948,13.5,73246.0,-8.33,-10.05,-9.93,0,*6A
1487354516.83,55949,13.44,73242.0,-8.35,-10.01,-10.09,0,*52
1487354518.06,55950,13.44,73244.5,-8.35,-10.01,-10.01,0,*52
1487354519.3,55951,13.44,73244.5,-8.35,-10.01,-10.01,0,*53
1487354520.54,55952,13.44,73244.8,-8.35,-10.01,-10.01,0,*50
1487354521.78,55953,13.44,73246.5,-8.35,-10.01,-10.01,0,*51
1487354522.97,55954,13.44,73244.3,-8.33,-9.97,-9.97,0,*50
1487354524.19,55955,13.44,73242.5,-8.35,-10.09,-9.97,0,*68
1487354525.39,55956,13.44,73246.8,-8.33,-9.97,-9.93,0,*56
1487354526.58,55957,13.44,73246.5,-8.33,-10.05,-9.93,0,*64
1487354527.78,55958,13.44,73246.5,-8.29,-9.97,-9.93,0,*53
1487354528.98,55959,13.44,73244.3,-8.33,-9.93,-9.93,0,*5D
1487354530.2,55960,13.44,73246.0,-8.33,-9.83,-9.93,0,*56
1487354531.39,55961,13.44,73244.3,-8.33,-9.93,-9.93,0,*56
1487354532.59,55962,13.5,73246.0,-8.33,-9.93,-9.93,0,*55
1487354533.83,55963,13.44,73246.3,-8.33,-9.83,-9.83,0,*54
1487354535.05,55964,13.44,73246.8,-8.29,-9.83,-9.93,0,*59
1487354536.25,55965,13.44,73244.3,-8.29,-9.93,-9.93,0,*59
1487354537.45,55966,13.44,73248.0,-8.33,-9.93,-9.93,0,*51
1487354538.64,55967,13.44,73246.0,-8.33,-9.93,-9.97,0,*54
1487354539.84,55968,13.44,73240.8,-8.29,-9.93,-9.97,0,*50
1487354541.03,55969,13.44,73244.3,-8.33,-9.93,-9.97,0,*5A
1487354542.23,55970,13.44,73240.8,-8.29,-9.93,-9.97,0,*59
1487354543.42,55971,13.44,73240.0,-8.29,-9.97,-9.97,0,*5C
1487354544.64,55972,13.44,73242.8,-8.29,-9.93,-9.83,0,*5E
1487354545.84,55973,13.44,73246.0,-8.33,-9.93,-9.93,0,*55
1487354547.04,55974,13.44,73244.8,-8.29,-9.93,-9.93,0,*59
1487354548.24,55975,13.44,73248.0,-8.29,-9.97,-10.05,0,*6B
1487354549.44,55976,13.44,73244.3,-8.29,-10.05,-10.09,0,*57
1487354550.65,55977,13.44,73242.5,-8.29,-9.97,-10.09,0,*65
1487354551.84,55978,13.44,73246.0,-8.29,-9.97,-9.97,0,*55
1487354553.04,55979,13.44,73246.0,-8.33,-9.97,-9.97,0,*5F
1487354554.24,55980,13.44,73242.8,-8.33,-10.05,-10.05,0,*59
1487354555.44,55981,13.44,73240.5,-8.29,-10.05,-10.05,0,*53
1487354556.65,55982,13.44,73238.3,-8.29,-10.09,-10.15,0,*5D
1487354557.85,55983,13.5,73244.5,-8.33,-10.05,-10.09,0,*56
1487354559.07,55984,13.44,73232.0,-8.29,-10.23,-10.15,0,*53
1487354560.28,55985,13.44,73240.3,-8.33,-10.15,-10.23,0,*59
1487354561.49,55986,13.44,73238.5,-8.29,-10.09,-10.09,0,*54
1487354562.69,55987,13.44,73238.8,-8.29,-10.09,-10.09,0,*55
1487354563.89,55988,13.5,73242.3,-8.33,-9.97,-10.05,0,*62
1487354565.08,55989,13.44,73240.0,-8.33,-9.97,-9.97,0,*50
1487354566.28,55990,13.44,73240.0,-8.29,-9.97,-9.97,0,*53
1487354567.47,55991,13.44,73242.0,-8.33,-9.93,-9.97,0,*5D
1487354568.67,55992,13.44,73242.0,-8.29,-9.93,-9.97,0,*55
1487354569.89,55993,13.44,73244.8,-8.33,-9.83,-9.97,0,*5E
1487354571.08,55994,13.44,73246.3,-8.29,-9.93,-9.97,0,*53
1487354572.29,55995,13.44,73242.5,-8.29,-9.93,-10.05,0,*61
1487354573.49,55996,13.44,73242.3,-8.29,-10.05,-10.05,0,*55
1487354574.69,55997,13.44,73238.5,-8.29,-9.97,-9.97,0,*54
1487354575.88,55998,13.44,73236.5,-8.29,-9.97,-9.97,0,*5B
1487354577.08,55999,13.44,73244.5,-8.29,-9.93,-9.97,0,*5E
1487354578.3,56000,13.44,73248.5,-8.29,-9.83,-9.93,0,*51
1487354579.5,56001,13.44,73250.8,-8.29,-9.93,-9.97,0,*55
1487354580.7,56002,13.44,73250.3,-8.29,-10.05,-10.05,0,*52
1487354581.9,56003,13.44,73246.8,-8.33,-9.97,-10.05,0,*6B
1487354583.1,56004,13.44,73248.5,-8.29,-9.97,-9.97,0,*54
1487354584.29,56005,13.44,73244.0,-8.33,-9.97,-9.97,0,*5E
1487354585.49,56006,13.44,73244.8,-8.29,-9.97,-9.97,0,*56
1487354586.69,56007,13.44,73244.8,-8.29,-10.05,-10.09,0,*5B
1487354587.9,56008,13.44,73244.0,-8.29,-10.05,-10.15,0,*59
1487354589.11,56009,13.44,73242.3,-8.33,-10.05,-10.15,0,*53
1487354590.33,56010,13.44,73238.0,-8.29,-10.15,-10.15,0,*51
1487354591.54,56011,13.44,73236.0,-8.29,-10.09,-10.09,0,*50
1487354592.76,56012,13.44,73238.0,-8.29,-10.15,-10.15,0,*53
1487354593.97,56013,13.44,73238.0,-8.29,-10.09,-10.15,0,*5F
1487354595.16,56014,13.44,73240.8,-8.33,-9.97,-9.97,0,*5E
1487354596.37,56015,13.44,73242.3,-8.29,-10.05,-10.05,0,*54
1487354597.57,56016,13.44,73240.5,-8.29,-10.05,-10.05,0,*57
1487354598.79,56017,13.44,73234.8,-8.29,-10.15,-10.23,0,*53
1487354599.99,56018,13.44,73238.5,-8.29,-10.09,-10.09,0,*59
1487354601.21,56019,13.44,73240.3,-8.29,-10.15,-10.15,0,*58
1487354602.42,56020,13.44,73238.3,-8.29,-10.23,-10.23,0,*52
1487354603.64,56021,13.44,73238.0,-8.33,-10.23,-10.27,0,*5C
1487354604.85,56022,13.44,73236.3,-8.29,-10.09,-10.15,0,*5D
1487354606.07,56023,13.44,73240.8,-8.33,-10.27,-10.27,0,*5A
1487354607.27,56024,13.44,73240.5,-8.33,-10.23,-10.23,0,*5D
1487354608.48,56025,13.44,73238.8,-8.33,-10.05,-10.15,0,*5D
1487354609.68,56026,13.44,73236.8,-8.33,-9.97,-10.05,0,*6C
1487354610.88,56027,13.44,73240.5,-8.29,-10.05,-10.05,0,*55
1487354612.08,56028,13.44,73240.3,-8.29,-9.97,-9.97,0,*5A
1487354613.28,56029,13.44,73238.0,-8.33,-9.97,-9.97,0,*50
1487354614.47,56030,13.44,73240.5,-8.29,-9.97,-9.97,0,*53
1487354615.67,56031,13.44,73242.3,-8.33,-10.05,-10.05,0,*59
1487354616.87,56032,13.44,73238.3,-8.33,-10.05,-10.05,0,*5A
1487354618.07,56033,13.44,73240.8,-8.33,-10.05,-9.97,0,*68
1487354619.27,56034,13.44,73236.8,-8.33,-10.05,-10.09,0,*50
1487354620.47,56035,13.44,73240.0,-8.33,-10.09,-10.09,0,*5D
1487354621.68,56036,13.44,73240.5,-8.33,-10.15,-10.23,0,*5B
1487354622.9,56037,13.44,73240.3,-8.33,-10.27,-10.27,0,*5F
1487354624.11,56038,13.44,73238.0,-8.29,-10.27,-10.23,0,*5F
1487354625.33,56039,13.44,73232.8,-8.33,-10.27,-10.35,0,*52
1487354626.54,56040,13.44,73234.3,-8.33,-10.23,-10.23,0,*5F
1487354627.75,56041,13.44,73234.0,-8.33,-10.23,-10.23,0,*5E
1487354628.95,56042,13.44,73236.8,-8.33,-10.09,-10.05,0,*51
1487354630.15,56043,13.44,73240.0,-8.33,-10.09,-9.97,0,*63
1487354631.36,56044,13.44,73240.5,-8.29,-10.15,-10.09,0,*5D
1487354632.56,56045,13.44,73240.5,-8.29,-10.05,-10.05,0,*51
1487354633.8,56046,13.44,73242.5,-8.35,-10.01,-10.01,0,*5F
1487354635.0,56047,13.44,73238.8,-8.33,-10.05,-9.97,0,*6B
1487354636.19,56048,13.44,73242.5,-8.33,-10.05,-9.97,0,*64
1487354637.39,56049,13.44,73244.8,-8.33,-9.97,-9.97,0,*56
1487354638.58,56050,13.44,73248.3,-8.33,-9.97,-9.97,0,*5E
1487354639.82,56051,13.44,73248.3,-8.35,-10.01,-10.01,0,*59
1487354641.01,56052,13.44,73248.3,-8.33,-9.93,-9.93,0,*5C
1487354642.21,56053,13.44,73248.8,-8.29,-9.93,-9.93,0,*56
1487354643.41,56054,13.44,73246.5,-8.33,-9.93,-9.93,0,*5A
1487354644.6,56055,13.44,73250.5,-8.29,-9.93,-9.97,0,*54
1487354645.8,56056,13.44,73246.3,-8.33,-9.93,-9.93,0,*58
1487354647.0,56057,13.44,73244.5,-8.29,-9.93,-9.93,0,*52
1487354648.19,56058,13.44,73244.0,-8.33,-9.93,-9.93,0,*56
1487354649.39,56059,13.44,73246.0,-8.29,-9.93,-9.93,0,*5C
1487354650.59,56060,13.44,73246.0,-8.33,-9.93,-9.93,0,*5D
1487354651.78,56061,13.44,73246.5,-8.29,-9.93,-9.93,0,*57
1487354652.98,56062,13.44,73246.3,-8.33,-9.93,-9.93,0,*5F
1487354654.18,56063,13.44,73242.8,-8.29,-10.09,-10.05,0,*59
1487354655.4,56064,13.44,73236.0,-8.33,-10.15,-10.15,0,*59
1487354656.6,56065,13.44,73236.8,-8.33,-9.97,-9.97,0,*58
1487354657.79,56066,13.44,73240.0,-8.29,-9.97,-9.97,0,*50
1487354658.99,56067,13.44,73240.3,-8.29,-9.97,-10.05,0,*62
1487354660.19,56068,13.44,73242.8,-8.29,-9.93,-9.97,0,*5A
1487354661.39,56069,13.44,73240.8,-8.29,-9.93,-9.93,0,*5F
1487354662.58,56070,13.44,73244.3,-8.33,-9.93,-9.93,0,*5C
1487354663.8,56071,13.44,73244.8,-8.33,-9.83,-9.93,0,*5C
1487354665.03,56072,13.44,73244.3,-8.29,-9.83,-9.93,0,*54
1487354666.22,56073,13.44,73242.3,-8.29,-9.93,-9.93,0,*54
1487354667.42,56074,13.44,73244.5,-8.33,-9.93,-9.93,0,*58
1487354668.61,56075,13.44,73246.5,-8.33,-9.93,-9.97,0,*5D
1487354669.81,56076,13.44,73246.0,-8.29,-9.93,-9.97,0,*55
1487354671.01,56077,13.44,73244.8,-8.29,-9.93,-10.05,0,*67
1487354672.21,56078,13.44,73240.5,-8.29,-9.93,-10.05,0,*68
1487354673.41,56079,13.44,73240.3,-8.29,-9.93,-9.97,0,*5A
1487354674.6,56080,13.44,73244.5,-8.29,-9.93,-9.97,0,*5C
1487354675.8,56081,13.44,73242.8,-8.33,-9.93,-9.97,0,*56
1487354676.99,56082,13.44,73244.0,-8.29,-9.93,-9.97,0,*5E
1487354678.19,56083,13.44,73246.0,-8.29,-9.93,-9.97,0,*5F
1487354679.38,56084,13.44,73248.0,-8.33,-9.93,-9.93,0,*57
1487354680.58,56085,13.44,73246.3,-8.33,-9.93,-9.97,0,*52
1487354681.77,56086,13.44,73250.3,-8.29,-9.93,-9.97,0,*5A
1487354682.97,56087,13.44,73252.5,-8.33,-9.93,-9.97,0,*50
1487354684.16,56088,13.44,73254.0,-8.29,-9.93,-9.97,0,*54
1487354685.36,56089,13.44,73256.0,-8.29,-9.93,-9.97,0,*55
1487354686.58,56090,13.44,73252.5,-8.29,-9.83,-9.97,0,*5C
1487354687.77,56091,13.44,73252.8,-8.29,-9.93,-9.97,0,*5C
1487354688.97,56092,13.44,73248.8,-8.29,-9.93,-10.05,0,*6C
1487354690.17,56093,13.44,73242.8,-8.29,-9.93,-9.97,0,*5E
1487354691.37,56094,13.44,73240.8,-8.29,-9.93,-9.97,0,*59
1487354692.59,56095,13.44,73238.5,-8.29,-9.83,-9.93,0,*5D
1487354693.79,56096,13.44,73232.0,-8.29,-9.93,-9.93,0,*5F
1487354694.99,56097,13.44,73234.8,-8.29,-9.97,-9.97,0,*5E
1487354696.18,56098,13.44,73234.8,-8.29,-9.97,-9.97,0,*51
1487354697.38,56099,13.44,73244.0,-8.29,-9.97,-9.97,0,*50
1487354698.58,56100,13.44,73250.8,-8.33,-9.97,-10.05,0,*69
1487354699.78,56101,13.44,73246.0,-8.29,-9.97,-10.05,0,*63
1487354700.97,56102,13.44,73248.0,-8.29,-9.97,-9.97,0,*53
1487354702.17,56103,13.44,73244.0,-8.29,-9.97,-9.97,0,*52
1487354703.39,56104,13.44,73248.5,-8.29,-9.83,-9.93,0,*54
1487354704.59,56105,13.44,73248.5,-8.29,-9.93,-9.93,0,*54
1487354705.79,56106,13.44,73248.5,-8.29,-9.93,-9.97,0,*53
1487354706.98,56107,13.44,73248.8,-8.29,-9.93,-9.97,0,*52
1487354708.18,56108,13.44,73250.8,-8.29,-9.93,-9.97,0,*5D
1487354709.38,56109,13.44,73248.8,-8.29,-9.93,-9.93,0,*58
1487354710.6,56110,13.44,73248.0,-8.27,-9.93,-9.93,0,*5E
1487354711.82,56111,13.44,73248.0,-8.27,-10.01,-9.93,0,*6C
1487354713.02,56112,13.44,73244.3,-8.29,-9.97,-9.97,0,*52
1487354714.24,56113,13.44,73250.3,-8.27,-9.93,-9.93,0,*5D
1487354715.43,56114,13.44,73246.0,-8.29,-9.93,-9.97,0,*50
1487354716.65,56115,13.44,73246.8,-8.27,-9.89,-9.93,0,*50
1487354717.86,56116,13.44,73250.8,-8.27,-9.89,-9.89,0,*58
1487354719.07,56117,13.44,73254.5,-8.27,-9.89,-9.89,0,*59
1487354720.28,56118,13.44,73248.8,-8.27,-9.93,-9.89,0,*5D
1487354721.5,56119,13.44,73250.5,-8.27,-9.93,-9.89,0,*5C
1487354722.69,56120,13.44,73246.5,-8.25,-9.93,-9.89,0,*54
1487354723.9,56121,13.44,73242.5,-8.27,-9.93,-9.89,0,*57
1487354725.12,56122,13.44,73246.5,-8.27,-9.93,-9.89,0,*54
1487354726.33,56123,13.44,73246.8,-8.27,-9.93,-9.89,0,*55
1487354727.55,56124,13.44,73246.5,-8.27,-9.93,-9.89,0,*52
1487354728.74,56125,13.44,73244.0,-8.25,-9.93,-9.89,0,*51
1487354729.94,56126,13.44,73240.3,-8.25,-10.01,-9.89,0,*61
1487354731.15,56127,13.44,73244.3,-8.27,-9.93,-9.89,0,*51
1487354732.37,56128,13.44,73244.8,-8.27,-9.93,-9.89,0,*5E
1487354733.58,56129,13.44,73250.5,-8.27,-9.93,-9.89,0,*5F
1487354734.8,56130,13.44,73248.0,-8.27,-9.93,-9.89,0,*57
1487354736.02,56131,13.44,73246.8,-8.27,-10.01,-9.89,0,*65
1487354737.23,56132,13.44,73244.5,-8.27,-9.93,-9.89,0,*55
1487354738.45,56133,13.44,73244.5,-8.27,-9.93,-9.89,0,*54
1487354739.67,56134,13.44,73244.3,-8.27,-9.93,-9.79,0,*5C
1487354740.88,56135,13.44,73246.8,-8.27,-9.93,-9.89,0,*52
1487354742.1,56136,13.44,73246.5,-8.27,-9.93,-9.79,0,*5E
1487354743.29,56137,13.44,73246.0,-8.25,-9.93,-9.79,0,*5D
1487354744.48,56138,13.44,73246.3,-8.25,-9.89,-9.79,0,*59
1487354745.7,56139,13.44,73248.3,-8.27,-9.89,-9.79,0,*5A
1487354746.9,56140,13.44,73252.3,-8.25,-9.79,-9.67,0,*56
1487354748.11,56141,13.44,73250.0,-8.27,-9.89,-9.75,0,*59
1487354749.3,56142,13.44,73252.5,-8.25,-9.89,-9.75,0,*58
1487354750.49,56143,13.44,73250.3,-8.25,-9.89,-9.75,0,*59
1487354751.68,56144,13.44,73252.0,-8.25,-9.89,-9.75,0,*5E
1487354752.89,56145,13.44,73254.5,-8.27,-9.89,-9.75,0,*5D
1487354754.08,56146,13.44,73254.3,-8.25,-9.89,-9.79,0,*50
1487354755.27,56147,13.44,73252.8,-8.25,-9.89,-9.89,0,*5E
1487354756.46,56148,13.44,73250.0,-8.25,-9.93,-9.89,0,*5A
1487354757.66,56149,13.44,73246.3,-8.25,-9.93,-9.79,0,*54
1487354758.86,56150,13.44,73250.5,-8.25,-9.79,-9.75,0,*54
1487354760.06,56151,13.44,73254.8,-8.25,-9.79,-9.75,0,*55
1487354761.28,56152,13.44,73254.5,-8.25,-9.79,-9.61,0,*53
1487354762.5,56153,13.44,73252.3,-8.27,-9.79,-9.75,0,*55
1487354763.7,56154,13.44,73254.8,-8.25,-9.79,-9.67,0,*53
1487354764.9,56155,13.44,73252.8,-8.25,-9.79,-9.75,0,*51
1487354766.09,56156,13.44,73248.8,-8.25,-9.89,-9.79,0,*51
1487354767.29,56157,13.44,73250.3,-8.25,-9.79,-9.79,0,*5F
1487354768.48,56158,13.44,73250.5,-8.25,-9.89,-9.79,0,*5F
1487354769.68,56159,13.44,73250.0,-8.25,-9.79,-9.75,0,*5D
1487354770.87,56160,13.44,73252.5,-8.25,-9.93,-9.89,0,*50
1487354772.12,56161,13.44,73244.3,-8.23,-9.89,-9.83,0,*56
1487354773.36,56162,13.44,73246.0,-8.23,-9.89,-9.83,0,*55
1487354774.6,56163,13.44,73250.0,-8.23,-9.83,-9.75,0,*57
1487354775.84,56164,13.44,73250.5,-8.23,-9.89,-9.83,0,*53
1487354777.09,56165,13.44,73244.3,-8.23,-9.97,-9.83,0,*5D
1487354778.33,56166,13.44,73248.5,-8.23,-9.97,-9.83,0,*5E
1487354779.55,56167,13.44,73252.0,-8.23,-9.89,-9.75,0,*59
1487354780.77,56168,13.44,73248.8,-8.25,-10.19,-10.01,0,*5A
1487354781.98,56169,13.44,73248.5,-8.25,-10.35,-10.23,0,*55
1487354783.21,56170,13.44,73244.3,-8.27,-10.23,-10.09,0,*50
1487354784.42,56171,13.44,73236.8,-8.25,-10.19,-10.09,0,*5A
1487354785.65,56172,13.44,73234.5,-8.27,-10.09,-10.05,0,*56
1487354786.84,56173,13.44,73234.0,-8.25,-10.05,-9.93,0,*6E
1487354788.06,56174,13.44,73240.0,-8.27,-10.05,-9.93,0,*6B
1487354789.26,56175,13.44,73236.8,-8.25,-9.93,-9.93,0,*5F
1487354790.48,56176,13.44,73242.5,-8.27,-10.01,-9.93,0,*6D
1487354791.7,56177,13.44,73244.5,-8.27,-9.93,-9.75,0,*57
1487354792.89,56178,13.44,73244.0,-8.25,-9.89,-9.89,0,*52
1487354794.1,56179,13.44,73244.5,-8.27,-9.93,-9.89,0,*5A
1487354795.3,56180,13.44,73246.8,-8.25,-10.01,-9.89,0,*6D
1487354796.52,56181,13.44,73246.5,-8.27,-9.93,-9.79,0,*52
1487354797.71,56182,13.44,73252.5,-8.25,-9.93,-9.89,0,*5C
1487354798.91,56183,13.44,73252.3,-8.25,-9.93,-9.79,0,*52
1487354800.1,56184,13.44,73252.8,-8.25,-9.89,-9.75,0,*52
1487354801.31,56185,13.44,73248.0,-8.27,-9.89,-9.75,0,*51
1487354802.5,56186,13.44,73252.0,-8.25,-9.89,-9.79,0,*5C
1487354803.7,56187,13.44,73250.5,-8.25,-9.79,-9.79,0,*52
1487354804.89,56188,13.44,73248.8,-8.25,-9.89,-9.75,0,*5E
1487354806.09,56189,13.44,73248.3,-8.25,-9.79,-9.75,0,*50
1487354807.28,56190,13.44,73246.8,-8.25,-9.89,-9.79,0,*5B
1487354808.49,56191,13.44,73250.8,-8.27,-9.89,-9.89,0,*57
1487354809.7,56192,13.44,73250.5,-8.27,-9.89,-9.89,0,*54
1487354810.89,56193,13.44,73252.3,-8.25,-9.89,-9.79,0,*58
1487354812.1,56194,13.44,73252.5,-8.27,-9.89,-9.89,0,*52
1487354813.3,56195,13.44,73244.5,-8.25,-9.93,-9.89,0,*5A
1487354814.51,56196,13.44,73244.5,-8.27,-9.93,-9.89,0,*5B
1487354815.7,56197,13.44,73240.8,-8.25,-9.89,-9.89,0,*53
1487354816.91,56198,13.44,73240.8,-8.27,-9.89,-9.79,0,*51
1487354818.16,56199,13.44,73236.5,-8.23,-9.83,-9.75,0,*52
1487354819.36,56200,13.44,73242.5,-8.25,-9.79,-9.79,0,*5E
1487354820.57,56201,13.44,73248.5,-8.27,-9.89,-9.79,0,*52
1487354821.76,56202,13.44,73246.8,-8.25,-9.89,-9.89,0,*5C
1487354822.95,56203,13.44,73246.5,-8.25,-9.93,-9.89,0,*56
1487354824.14,56204,13.44,73250.0,-8.25,-9.93,-9.89,0,*51
1487354825.33,56205,13.44,73244.8,-8.25,-9.93,-9.89,0,*50
1487354826.53,56206,13.44,73244.0,-8.25,-9.79,-9.75,0,*54
1487354827.73,56207,13.44,73250.5,-8.25,-9.79,-9.67,0,*56
1487354828.96,56208,13.44,73248.5,-8.27,-9.79,-9.67,0,*5B
1487354830.17,56209,13.44,73250.8,-8.27,-9.67,-9.67,0,*55
1487354831.4,56210,13.44,73250.0,-8.27,-9.75,-9.75,0,*5D
1487354832.6,56211,13.44,73246.8,-8.25,-9.79,-9.79,0,*5E
1487354833.79,56212,13.44,73248.0,-8.25,-9.89,-9.79,0,*52
1487354834.98,56213,13.44,73246.5,-8.25,-9.89,-9.89,0,*5C
1487354836.18,56214,13.44,73246.5,-8.25,-10.01,-9.93,0,*68
1487354837.39,56215,13.44,73242.0,-8.25,-10.01,-10.01,0,*5A
1487354838.61,56216,13.44,73242.5,-8.27,-9.93,-9.93,0,*5B
1487354839.82,56217,13.44,73240.8,-8.27,-9.89,-9.79,0,*55
1487354841.04,56218,13.44,73238.8,-8.27,-9.79,-9.79,0,*55
1487354842.23,56219,13.44,73236.0,-8.25,-9.89,-9.89,0,*56
1487354843.42,56220,13.44,73242.0,-8.25,-9.89,-9.89,0,*5C
1487354844.61,56221,13.44,73240.5,-8.25,-9.89,-9.89,0,*5D
1487354845.81,56222,13.44,73240.8,-8.25,-9.79,-9.79,0,*5E
1487354847.01,56223,13.44,73240.0,-8.25,-9.75,-9.75,0,*5F
1487354848.21,56224,13.44,73244.3,-8.25,-9.75,-9.79,0,*54
1487354849.4,56225,13.44,73240.8,-8.25,-9.79,-9.89,0,*56
1487354850.62,56226,13.44,73242.0,-8.27,-9.89,-9.89,0,*58
1487354851.82,56227,13.44,73244.3,-8.25,-9.79,-9.79,0,*5B
1487354853.04,56228,13.44,73246.8,-8.27,-9.79,-9.79,0,*56
1487354854.24,56229,13.44,73248.8,-8.25,-9.67,-9.75,0,*56
1487354855.44,56230,13.44,73244.8,-8.25,-9.79,-9.79,0,*5D
1487354856.63,56231,13.44,73250.5,-8.25,-9.79,-9.89,0,*53
1487354857.83,56232,13.44,73250.5,-8.25,-9.75,-9.89,0,*5C
1487354859.02,56233,13.44,73248.0,-8.25,-9.89,-9.89,0,*5E
1487354860.23,56234,13.44,73238.0,-8.25,-10.01,-10.01,0,*59
1487354861.43,56235,13.44,73240.8,-8.25,-9.93,-10.01,0,*6B
1487354862.65,56236,13.44,73240.3,-8.27,-9.93,-9.93,0,*59
1487354863.87,56237,13.44,73242.3,-8.27,-9.93,-9.93,0,*58
1487354865.08,56238,13.44,73242.3,-8.27,-9.89,-9.79,0,*58
1487354866.3,56239,13.44,73240.3,-8.27,-9.67,-9.79,0,*59
1487354867.52,56240,13.44,73240.0,-8.27,-9.67,-9.75,0,*5B
1487354868.77,56241,13.44,73240.0,-8.27,-9.61,-9.67,0,*5F
1487354869.97,56242,13.44,73240.5,-8.25,-9.79,-9.75,0,*54
1487354871.19,56243,13.44,73238.5,-8.27,-9.75,-9.75,0,*5B
1487354872.39,56244,13.44,73236.0,-8.25,-9.67,-9.75,0,*5D
1487354873.58,56245,13.44,73242.3,-8.25,-9.67,-9.67,0,*5F
1487354874.8,56246,13.44,73242.5,-8.27,-9.67,-9.75,0,*5D
1487354876.0,56247,13.44,73244.5,-8.25,-9.79,-9.75,0,*51
1487354877.22,56248,13.44,73242.0,-8.27,-9.75,-9.75,0,*50
1487354878.45,56249,13.44,73240.0,-8.27,-9.75,-9.75,0,*51
1487354879.67,56250,13.44,73244.0,-8.27,-9.75,-9.79,0,*55
1487354880.87,56251,13.44,73240.5,-8.25,-9.75,-9.79,0,*56
1487354882.07,56252,13.44,73240.5,-8.25,-9.75,-9.89,0,*5A
1487354883.29,56253,13.44,73240.3,-8.27,-9.67,-9.79,0,*55
1487354884.49,56254,13.44,73242.8,-8.25,-9.75,-9.79,0,*53
1487354885.69,56255,13.44,73246.0,-8.25,-9.75,-9.75,0,*5E
1487354886.89,56256,13.44,73244.3,-8.25,-9.79,-9.79,0,*5D
1487354888.09,56257,13.44,73242.0,-8.25,-9.79,-9.79,0,*5C
1487354889.28,56258,13.44,73246.8,-8.25,-9.75,-9.75,0,*53
1487354890.48,56259,13.44,73240.5,-8.25,-9.79,-9.89,0,*5D
1487354891.68,56260,13.44,73240.0,-8.25,-9.75,-9.79,0,*54
1487354892.88,56261,13.44,73242.5,-8.25,-9.75,-9.75,0,*59
1487354894.08,56262,13.44,73240.8,-8.25,-9.75,-9.89,0,*59
1487354895.28,56263,13.44,73244.5,-8.25,-9.75,-9.79,0,*57